Content
SEND FEEDBACK

Daily
Averages
Monthly
Summary
Cocos Islands

WEST ISLAND, COCOS ISLANDS


Home > Oceania > Cocos Islands
Elevation: 9 feet     Latitude: 12 11S     Longitude: 096 49E

WEATHER
 
SELECT A DAY
Number of Records: 246,319;   Date Range: 7/1/96 - 7/30/14
 
SHARE

PRINT THIS DATA

[ ← Previous Day ]
WEATHER ALMANAC - FEBRUARY 13, 2013
[ Next Day → ]
[ °C ]   °F
Weather ElementAverageHighLow
Temperature83.8 °F86 °F (9:00 am)80.6 °F (12:30 am)
Dewpoint75 °F79 °F (12:30 pm)71.6 °F (12:30 am)
Humidity74 %89 % (10:30 am)61 % (9:30 am)
Barometer29.80 in29.85 in (9:30 am)29.74 in (3:30 pm)
Wind Speed11.2 mph16.1 mph (10:30 am)
Weather ElementAverage
Visibility6.4 mi
Wind DirectionESE (112.3 °)

Weather ElementTotal
Precipitation---
Cooling Degree Days18.3 (Base 65)
Growing Degree Days33.3 (Base 50)
Averaged from 56 records on February 13, 2013
WEATHER CONDITIONS BREAKOUT
WIND DIRECTION BREAKOUT
WEATHER BY HOUR - FEBRUARY 13, 2013
[ °C ]   °F
Local TimeTemperatureDewpointHumidityBarometerVisibilityWind DirectionWind SpeedGust SpeedPrecipitationEventsConditions
12:30 AM81.0 °F72.0 °F66 %29.84 inSSE (150°)5.8 mph
12:30 AM80.6 °F71.6 °F74 %29.83 in6.2 miSSE (150°)5.8 mphScattered Clouds
1:00 AM82.4 °F71.6 °F70 %29.83 in6.2 miSSE (150°)8.1 mph
1:30 AM80.6 °F71.6 °F74 %29.83 in6.2 miSSE (150°)8.1 mphScattered Clouds
2:00 AM80.6 °F71.6 °F74 %29.80 in6.2 miSSE (150°)8.1 mph
2:30 AM82.4 °F71.6 °F70 %29.80 in6.2 miSSE (150°)8.1 mph
3:00 AM80.6 °F73.4 °F79 %29.80 in6.2 miSE (140°)8.1 mph
3:30 AM80.6 °F71.6 °F74 %29.77 in6.2 miSE (140°)9.2 mph
3:30 AM81.0 °F72.0 °F68 %29.79 inSE (140°)9.2 mph
4:00 AM80.6 °F71.6 °F74 %29.77 in6.2 miSE (140°)10.4 mphScattered Clouds
4:30 AM80.6 °F71.6 °F74 %29.77 in6.2 miSE (130°)11.5 mphScattered Clouds
5:00 AM80.6 °F71.6 °F74 %29.77 in6.2 miSE (140°)9.2 mphScattered Clouds
5:30 AM82.4 °F71.6 °F70 %29.80 in6.2 miSSE (150°)10.4 mphPartly Cloudy
6:00 AM82.4 °F71.6 °F70 %29.80 in6.2 miSE (130°)12.7 mphPartly Cloudy
6:30 AM82.4 °F71.6 °F70 %29.80 in6.2 miESE (120°)11.5 mphPartly Cloudy
6:30 AM82.0 °F72.0 °F64 %29.82 in12.0 miESE (120°)11.5 mphPartly Cloudy
7:00 AM82.4 °F73.4 °F74 %29.83 in6.2 miESE (120°)12.7 mphPartly Cloudy
7:30 AM82.4 °F73.4 °F74 %29.83 in6.2 miESE (120°)13.8 mphPartly Cloudy
8:00 AM84.2 °F73.4 °F70 %29.83 in6.2 miESE (120°)13.8 mphScattered Clouds
8:30 AM84.2 °F73.4 °F70 %29.83 in6.2 miESE (120°)13.8 mphPartly Cloudy
9:00 AM86.0 °F73.4 °F66 %29.83 in6.2 miESE (110°)15.0 mphPartly Cloudy
9:30 AM86.0 °F75.2 °F70 %29.83 in6.2 miESE (110°)12.7 mphPartly Cloudy
9:30 AM86.0 °F74.0 °F61 %29.85 in12.0 miESE (110°)12.7 mphPartly Cloudy
10:00 AM86.0 °F75.2 °F70 %29.83 in6.2 miEast (100°)15.0 mphPartly Cloudy
10:30 AM82.4 °F78.8 °F89 %29.83 in5.6 miENE (60°)16.1 mphMostly Cloudy
11:00 AM84.2 °F77.0 °F79 %29.83 in6.2 miENE (60°)13.8 mphPartly Cloudy
11:30 AM86.0 °F78.8 °F79 %29.83 in6.2 miENE (70°)10.4 mphScattered Clouds
12:00 PM86.0 °F78.8 °F79 %29.83 in6.2 miENE (70°)11.5 mphPartly Cloudy
12:21 PM86.0 °F77.0 °F74 %29.80 in2.5 miENE (60°)10.4 mphRainRain Showers
12:24 PM84.2 °F78.8 °F84 %29.80 in5.6 miENE (60°)11.5 mphRainLight Rain Showers
12:30 PM85.0 °F79.0 °F77 %29.82 in9.0 miENE (70°)12.7 mphRainLight Rain Showers
12:30 PM84.2 °F78.8 °F84 %29.80 in6.2 miENE (70°)12.7 mphMostly Cloudy
1:00 PM86.0 °F77.0 °F74 %29.80 in6.2 miEast (80°)10.4 mphMostly Cloudy
1:30 PM86.0 °F77.0 °F74 %29.80 in6.2 miEast (90°)9.2 mphPartly Cloudy
2:00 PM86.0 °F77.0 °F74 %29.77 in6.2 miEast (90°)11.5 mphPartly Cloudy
2:30 PM86.0 °F77.0 °F74 %29.77 in6.2 miEast (90°)11.5 mphPartly Cloudy
3:00 PM86.0 °F77.0 °F74 %29.77 in6.2 miEast (100°)11.5 mphPartly Cloudy
3:30 PM86.0 °F75.2 °F70 %29.74 in6.2 miEast (100°)13.8 mphRainLight Rain Showers
4:00 PM86.0 °F75.2 °F70 %29.74 in6.2 miEast (90°)13.8 mphPartly Cloudy
4:30 PM86.0 °F77.0 °F74 %29.74 in6.2 miEast (100°)12.7 mphMostly Cloudy
5:00 PM86.0 °F77.0 °F74 %29.74 in6.2 miESE (110°)12.7 mphMostly Cloudy
5:30 PM84.2 °F77.0 °F79 %29.74 in6.2 miESE (110°)10.4 mphScattered Clouds
6:00 PM84.2 °F75.2 °F74 %29.77 in6.2 miESE (110°)10.4 mph
6:30 PM84.0 °F75.0 °F67 %29.78 inESE (110°)10.4 mph
6:30 PM84.2 °F75.2 °F74 %29.77 in6.2 miESE (110°)10.4 mph
7:00 PM84.2 °F75.2 °F74 %29.77 in6.2 miESE (120°)10.4 mph
7:30 PM84.2 °F77.0 °F79 %29.77 in6.2 miESE (120°)11.5 mphScattered Clouds
8:00 PM84.2 °F77.0 °F79 %29.80 in6.2 miESE (120°)11.5 mphScattered Clouds
8:30 PM84.2 °F77.0 °F79 %29.80 in6.2 miESE (120°)11.5 mph
9:00 PM82.4 °F77.0 °F84 %29.80 in6.2 miSE (130°)12.7 mphMostly Cloudy
9:30 PM84.0 °F76.0 °F72 %29.82 inESE (120°)12.7 mph
9:30 PM84.2 °F77.0 °F79 %29.80 in6.2 miESE (120°)12.7 mphMostly Cloudy
10:00 PM84.2 °F75.2 °F74 %29.83 in6.2 miESE (120°)11.5 mphOvercast
10:30 PM84.2 °F75.2 °F74 %29.83 in6.2 miESE (120°)11.5 mphScattered Clouds
11:00 PM84.2 °F75.2 °F74 %29.83 in6.2 miESE (120°)9.2 mph
11:30 PM84.2 °F77.0 °F79 %29.83 in6.2 miESE (110°)9.2 mphMostly Cloudy
Hourly data recorded from YPCC, located miles away from West Island, Cocos Islands







STORIES FROM OUR PARTNERS